Regional Weather Roundup
Issued by NWS

Home | Current Version | Previous Version | Text Only | Print | Product List | Glossary Off
Versions: 1 2 3 4 5 6 7 8 9 10 11 12 13 14 15 16 17 18 19 20 21 22 23 24 25 26 27 28 29 30 31 32 33 34 35 36 37 38 39 40 41 42 43 44 45 46 47 48 49 50

544
ASUS43 KBIS 230931
RWRND
NORTH DAKOTA REGIONAL WEATHER ROUNDUP
NATIONAL WEATHER SERVICE EASTERN NORTH DAKOTA/GRAND FORKS ND
300 AM CST FRI FEB 23 2018

  NOTE: "FAIR" INDICATES FEW OR NO CLOUDS BELOW 12,000 FEET WITH NO
  SIGNIFICANT WEATHER AND/OR OBSTRUCTIONS TO VISIBILITY.

NDZ001>003-009>011-017-231000-
...NORTHWEST NORTH DAKOTA...

CITY           SKY/WX    TMP DP  RH WIND       PRES   REMARKS
WILLISTON      MOCLDY   -10 -15  78 S6        30.25S WCI -23
MINOT          FAIR       2  -4  76 W9        30.19R WCI -13
MINOT AFB      FAIR       1  -5  77 NW14      30.18R WCI -18
$$

NDZ018>021-031>035-040>046-231000-
...SOUTHWEST NORTH DAKOTA...

CITY           SKY/WX    TMP DP  RH WIND       PRES   REMARKS
BISMARCK       MOCLDY    11   4  73 NW12      30.19R WCI  -3
DICKINSON      FAIR      -2  -7  79 NW13      30.13F WCI -20
GARRISON         N/A     -3  -8  79 NW13      30.18S WCI -22
HETTINGER      CLOUDY     1  -5  75 NW12      30.15S WCI -16
$$

NDZ004>008-012>016-024-026-027-054-231000-
...NORTHEAST NORTH DAKOTA...

CITY           SKY/WX    TMP DP  RH WIND       PRES   REMARKS
GRAND FORKS    LGT SNOW  18  15  88 N10       30.17F FOG     WCI   6
GRAND FORKS AF FAIR      16  14  93 N8        30.15F WCI   5
DEVILS LAKE    CLOUDY     7   3  84 NW7       30.16S WCI  -5
$$

NDZ022-023-025-028>030-036>039-047>053-231000-
...SOUTHEAST NORTH DAKOTA...

CITY           SKY/WX    TMP DP  RH WIND       PRES   REMARKS
JAMESTOWN      LGT SNOW  18  15  88 NW14      30.13S FOG     WCI   4
FARGO          LGT SNOW  20  18  92 N8        30.13F FOG     WCI  10
WAHPETON       CLOUDY    21  19  93 N3        30.11F
$$




USA.gov is the U.S. government's official web portal to all federal, state and local government web resources and services.